sat.trackr.live / text

‹ back to catalog

STARLINK-31681

NORAD 59746 · 2024-090S

PAYLOAD ACTIVE UNKNOWN

§ Identity

Operator
Country
US
Launch date
2024-05-13
Launch site
AFETR
Launch vehicle
Mass (kg)
RCS (m²)

Purposes: comms

External: N2YO · Heavens-Above · Gunter

§ Orbital elements

Epoch: 2026-09-21T02:03:04.249440Z

Period
94.27 min
Inclination
43.0034°
Eccentricity
0.0001097
Mean motion
15.27575409 rev/d
Perigee alt
482.3 km
Apogee alt
483.8 km
Semi-major
6,861.2 km
B*
8.6069e-7
RAAN
153.0625°
Arg perigee
271.6453°
Mean anomaly
88.4273°
Rev number
13,340

§ Raw data

STARLINK-316811 59746U 24090S   26264.08546585 -.00000238  00000+0  86069-6 0  99952 59746  43.0034 153.0625 0001097 271.6453  88.4273 15.27575409133402

JSON: /api/v1/satellites/59746 · /tle

For live sub-satellite position, see the globe view (requires WebGL).

§ Visibility from observer

Set your observer location to see the next 7 days of passes ≥ 10°. The values pass through the URL so the page stays shareable.

No JS? Fill the form by hand. The geolocation button needs JavaScript.